QPF
0.02 0.01 0.01 0.01 0.01 0.01 0.02 0.02 0.04 0.06 0.05 0.03 0.03 0.05 0.06 0.04 0.02 0.01 0.01 0.01 0.01 0.01 0.02 0.08 0.06 0.03 0.05 0.06 0.06 0.07 0.06 0.04 0.03 0.03 0.03 0.02 0.02 0.01 0.01 0.01 0.01 0.02 0.03 0.03
0.01 0.01 0.01 0.01 0.01 0.02 0.02 0.01 0.03 0.05 0.06 0.04 0.03 0.03 0.03 0.03 0.02 0.02 0.01 0.01 0.01 0.01 0.01 0.01 0.04 0.03 0.04 0.05 0.05 0.06 0.05 0.04 0.03 0.03 0.02 0.02 0.01 0.01 0.01 0.01 0.01 0.01 0.02 0.04
0.01 0.01 0.01 0.01 0.01 0.01 0.02 0.04 0.04 0.04 0.05 0.05 0.02 0.01 0.01 0.02 0.02 0.01 0.01 0.01 0.02 0.01 0.01 0.01 0.02 0.04 0.03 0.06 0.07 0.07 0.05 0.03 0.02 0.02 0.03 0.02 0.02 0.01 0.01 0.01 0.01 0.02 0.02 0.04
0.01 0.01 0.02 0.01 0.01 0.02 0.03 0.06 0.04 0.04 0.04 0.03 0.02 0.01 0.01 0.01 0.02 0.01 0.02 0.02 0.02 0.02 0.01 0.01 0.01 0.02 0.03 0.04 0.06 0.07 0.06 0.04 0.02 0.02 0.03 0.03 0.03 0.03 0.03 0.03 0.02 0.02 0.02 0.03
0.02 0.02 0.01 0.01 0.02 0.02 0.04 0.08 0.03 0.03 0.05 0.05 0.03 0.02 0.02 0.01 0.01 0.02 0.02 0.02 0.01 0.01 0.00 0.00 0.00 0.01 0.03 0.04 0.05 0.07 0.08 0.06 0.04 0.03 0.04 0.04 0.03 0.03 0.04 0.04 0.03 0.03 0.03 0.03
0.02 0.02 0.02 0.02 0.04 0.04 0.03 0.07 0.06 0.05 0.04 0.05 0.03 0.03 0.04 0.03 0.03 0.02 0.02 0.01 0.01 0.01 0.01 0.01 0.00 0.01 0.05 0.09 0.09 0.10 0.11 0.08 0.05 0.04 0.04 0.04 0.04 0.04 0.04 0.04 0.03 0.04 0.05 0.06
0.03 0.03 0.02 0.02 0.03 0.06 0.07 0.12 0.15 0.10 0.08 0.06 0.04 0.03 0.03 0.04 0.05 0.04 0.03 0.01 0.01 0.00 0.00 0.00 0.01 0.02 0.09 0.10 0.11 0.11 0.11 0.11 0.09 0.06 0.05 0.05 0.04 0.04 0.04 0.04 0.06 0.06 0.06 0.06
0.02 0.04 0.03 0.01 0.03 0.05 0.11 0.11 0.12 0.09 0.10 0.11 0.08 0.07 0.06 0.06 0.09 0.09 0.05 0.01 0.01 0.01 0.01 0.01 0.01 0.02 0.09 0.10 0.08 0.09 0.10 0.11 0.09 0.07 0.06 0.05 0.05 0.05 0.05 0.05 0.05 0.05 0.06 0.06
0.03 0.03 0.02 0.02 0.02 0.07 0.07 0.05 0.05 0.05 0.05 0.03 0.03 0.06 0.09 0.08 0.10 0.12 0.07 0.04 0.02 0.01 0.01 0.01 0.01 0.02 0.05 0.07 0.05 0.05 0.06 0.06 0.05 0.05 0.03 0.04 0.04 0.05 0.05 0.05 0.05 0.04 0.05 0.04
0.05 0.05 0.03 0.03 0.02 0.03 0.05 0.05 0.04 0.05 0.03 0.03 0.03 0.03 0.04 0.04 0.03 0.03 0.03 0.04 0.03 0.02 0.02 0.02 0.02 0.02 0.01 0.02 0.03 0.03 0.03 0.02 0.02 0.02 0.02 0.02 0.03 0.03 0.03 0.04 0.04 0.04 0.04 0.05
0.05 0.03 0.03 0.06 0.04 0.02 0.01 0.01 0.02 0.02 0.02 0.02 0.04 0.04 0.05 0.05 0.06 0.07 0.05 0.02 0.01 0.02 0.02 0.02 0.01 0.01 0.01 0.01 0.01 0.02 0.02 0.02 0.02 0.02 0.02 0.03 0.04 0.03 0.02 0.02 0.03 0.03 0.04 0.04
0.05 0.04 0.03 0.04 0.05 0.03 0.01 0.01 0.01 0.01 0.01 0.02 0.03 0.05 0.07 0.06 0.08 0.07 0.05 0.03 0.02 0.01 0.01 0.01 0.01 0.01 0.01 0.01 0.01 0.02 0.03 0.03 0.03 0.04 0.04 0.04 0.03 0.02 0.02 0.03 0.03 0.03 0.03 0.03
0.03 0.04 0.04 0.04 0.04 0.04 0.02 0.02 0.02 0.01 0.02 0.02 0.02 0.04 0.05 0.05 0.06 0.08 0.08 0.06 0.04 0.03 0.03 0.03 0.03 0.02 0.02 0.02 0.02 0.03 0.04 0.04 0.04 0.04 0.04 0.03 0.03 0.03 0.03 0.03 0.03 0.03 0.02 0.03
0.04 0.03 0.03 0.04 0.03 0.03 0.03 0.02 0.02 0.02 0.02 0.02 0.03 0.04 0.06 0.05 0.04 0.05 0.05 0.05 0.05 0.05 0.04 0.04 0.03 0.03 0.03 0.03 0.03 0.03 0.03 0.04 0.03 0.03 0.02 0.04 0.04 0.04 0.04 0.03 0.03 0.03 0.03 0.03
0.06 0.04 0.04 0.05 0.07 0.06 0.06 0.06 0.04 0.03 0.02 0.02 0.03 0.05 0.06 0.06 0.06 0.05 0.04 0.03 0.03 0.03 0.03 0.04 0.03 0.03 0.02 0.02 0.01 0.01 0.02 0.02 0.02 0.02 0.02 0.03 0.03 0.04 0.03 0.02 0.02 0.02 0.02 0.03
0.10 0.08 0.06 0.06 0.07 0.05 0.06 0.09 0.09 0.09 0.07 0.03 0.03 0.04 0.06 0.05 0.04 0.05 0.04 0.03 0.03 0.03 0.03 0.03 0.03 0.02 0.02 0.01 0.01 0.01 0.01 0.01 0.01 0.01 0.01 0.01 0.02 0.02 0.02 0.02 0.01 0.01 0.01 0.01
0.05 0.09 0.11 0.09 0.08 0.06 0.04 0.06 0.05 0.05 0.06 0.04 0.03 0.02 0.04 0.04 0.03 0.02 0.03 0.03 0.02 0.02 0.02 0.02 0.02 0.01 0.01 0.01 0.01 0.01 0.01 0.01 0.01 0.01 0.02 0.02 0.02 0.02 0.03 0.03 0.02 0.02 0.01 0.01
0.03 0.04 0.10 0.10 0.08 0.08 0.06 0.06 0.07 0.04 0.02 0.02 0.02 0.02 0.02 0.02 0.02 0.02 0.02 0.02 0.02 0.02 0.01 0.01 0.01 0.00 0.01 0.01 0.01 0.01 0.01 0.01 0.02 0.02 0.03 0.03 0.03 0.03 0.02 0.03 0.03 0.03 0.03 0.02
0.02 0.02 0.06 0.06 0.05 0.07 0.07 0.07 0.08 0.05 0.03 0.02 0.02 0.02 0.01 0.01 0.02 0.02 0.02 0.02 0.02 0.02 0.01 0.01 0.01 0.01 0.01 0.02 0.02 0.01 0.01 0.01 0.02 0.03 0.03 0.03 0.02 0.02 0.02 0.02 0.02 0.02 0.02 0.02
0.03 0.03 0.05 0.04 0.03 0.05 0.05 0.05 0.06 0.05 0.03 0.02 0.01 0.01 0.01 0.02 0.02 0.03 0.03 0.04 0.03 0.02 0.02 0.01 0.02 0.03 0.02 0.02 0.03 0.02 0.01 0.02 0.03 0.03 0.02 0.02 0.02 0.02 0.02 0.01 0.01 0.01 0.02 0.03
0.03 0.03 0.04 0.04 0.03 0.03 0.04 0.03 0.02 0.04 0.02 0.01 0.01 0.01 0.01 0.03 0.04 0.04 0.03 0.03 0.03 0.05 0.05 0.04 0.03 0.02 0.02 0.02 0.02 0.02 0.02 0.02 0.04 0.05 0.04 0.03 0.03 0.03 0.03 0.03 0.03 0.02 0.02 0.02
0.04 0.04 0.03 0.04 0.03 0.02 0.02 0.03 0.03 0.03 0.02 0.01 0.01 0.01 0.01 0.02 0.03 0.04 0.04 0.03 0.03 0.03 0.03 0.03 0.03 0.03 0.02 0.02 0.01 0.01 0.02 0.03 0.03 0.03 0.03 0.03 0.03 0.03 0.03 0.03 0.03 0.02 0.02 0.02
0.04 0.06 0.06 0.06 0.05 0.03 0.03 0.03 0.03 0.05 0.05 0.03 0.03 0.02 0.02 0.02 0.02 0.03 0.03 0.04 0.05 0.05 0.04 0.03 0.03 0.02 0.02 0.01 0.01 0.01 0.01 0.01 0.01 0.02 0.01 0.02 0.02 0.01 0.01 0.01 0.02 0.02 0.02 0.01
0.04 0.05 0.07 0.07 0.07 0.07 0.05 0.04 0.04 0.04 0.04 0.05 0.05 0.04 0.04 0.04 0.04 0.03 0.03 0.05 0.05 0.05 0.04 0.04 0.05 0.04 0.03 0.02 0.02 0.01 0.01 0.01 0.01 0.01 0.01 0.01 0.01 0.01 0.01 0.01 0.02 0.01 0.01 0.00
0.05 0.04 0.04 0.05 0.05 0.05 0.05 0.04 0.04 0.04 0.03 0.03 0.03 0.03 0.03 0.04 0.04 0.03 0.03 0.03 0.04 0.04 0.03 0.03 0.04 0.04 0.03 0.02 0.01 0.01 0.01 0.01 0.00 0.00 0.00 0.01 0.01 0.01 0.01 0.01 0.01 0.00 0.00 0.00
0.05 0.05 0.04 0.05 0.05 0.05 0.05 0.04 0.04 0.03 0.03 0.02 0.02 0.02 0.02 0.02 0.02 0.02 0.02 0.02 0.03 0.03 0.03 0.03 0.03 0.03 0.03 0.03 0.02 0.01 0.01 0.01 0.01 0.01 0.01 0.01 0.01 0.01 0.01 0.01 0.00 0.00 0.00 0.00
0.05 0.05 0.04 0.05 0.05 0.05 0.06 0.05 0.04 0.04 0.03 0.02 0.03 0.04 0.05 0.04 0.03 0.02 0.01 0.01 0.02 0.02 0.02 0.03 0.02 0.02 0.02 0.02 0.01 0.01 0.01 0.01 0.01 0.01 0.01 0.01 0.00 0.00 0.00 0.00 0.01 0.00 0.00 0.00
MSLP
1011.01 1011.73 1012.53 1013.35 1014.09 1014.67 1015.00 1015.03 1014.74 1014.19 1013.43 1012.58 1011.74 1011.00 1010.41 1010.01 1009.77 1009.65 1009.58 1009.50 1009.35 1009.12 1008.82 1008.47 1008.13 1007.87 1007.71 1007.68 1007.80 1008.02 1008.30 1008.60 1008.88 1009.08 1009.21 1009.25 1009.23 1009.17 1009.09 1009.01 1008.93 1008.86 1008.79 1008.70
1011.09 1011.81 1012.57 1013.31 1013.94 1014.40 1014.63 1014.60 1014.32 1013.83 1013.20 1012.50 1011.83 1011.25 1010.79 1010.48 1010.27 1010.14 1010.03 1009.89 1009.69 1009.43 1009.11 1008.78 1008.48 1008.25 1008.12 1008.11 1008.21 1008.39 1008.61 1008.83 1009.01 1009.13 1009.19 1009.18 1009.14 1009.08 1009.01 1008.96 1008.92 1008.88 1008.83 1008.76
1011.52 1012.22 1012.91 1013.53 1014.03 1014.34 1014.45 1014.34 1014.03 1013.57 1013.02 1012.45 1011.91 1011.46 1011.12 1010.87 1010.70 1010.57 1010.43 1010.25 1010.02 1009.74 1009.43 1009.13 1008.86 1008.67 1008.58 1008.58 1008.66 1008.79 1008.93 1009.05 1009.12 1009.14 1009.10 1009.03 1008.94 1008.86 1008.80 1008.77 1008.76 1008.74 1008.72 1008.66
1012.26 1012.89 1013.47 1013.95 1014.28 1014.43 1014.39 1014.17 1013.81 1013.35 1012.85 1012.36 1011.93 1011.59 1011.34 1011.16 1011.02 1010.89 1010.75 1010.55 1010.31 1010.03 1009.74 1009.46 1009.24 1009.09 1009.02 1009.02 1009.08 1009.15 1009.21 1009.22 1009.19 1009.10 1008.97 1008.82 1008.68 1008.57 1008.50 1008.47 1008.48 1008.49 1008.48 1008.44
1013.15 1013.67 1014.10 1014.40 1014.54 1014.52 1014.32 1013.99 1013.56 1013.09 1012.61 1012.19 1011.85 1011.59 1011.42 1011.30 1011.21 1011.10 1010.96 1010.77 1010.52 1010.25 1009.98 1009.74 1009.55 1009.43 1009.38 1009.38 1009.41 1009.42 1009.41 1009.34 1009.21 1009.02 1008.81 1008.59 1008.40 1008.25 1008.17 1008.14 1008.15 1008.17 1008.19 1008.17
1013.98 1014.35 1014.60 1014.71 1014.67 1014.46 1014.12 1013.68 1013.19 1012.70 1012.25 1011.89 1011.63 1011.46 1011.36 1011.31 1011.26 1011.18 1011.06 1010.88 1010.65 1010.40 1010.15 1009.93 1009.77 1009.67 1009.63 1009.62 1009.62 1009.60 1009.53 1009.39 1009.19 1008.94 1008.66 1008.39 1008.15 1007.98 1007.88 1007.84 1007.85 1007.88 1007.90 1007.90
1014.56 1014.75 1014.81 1014.74 1014.51 1014.15 1013.68 1013.16 1012.64 1012.16 1011.76 1011.46 1011.28 1011.20 1011.18 1011.20 1011.20 1011.16 1011.06 1010.90 1010.69 1010.45 1010.22 1010.03 1009.88 1009.79 1009.76 1009.74 1009.73 1009.68 1009.58 1009.40 1009.16 1008.87 1008.56 1008.25 1007.99 1007.79 1007.67 1007.61 1007.61 1007.64 1007.66 1007.66
1014.73 1014.74 1014.63 1014.39 1014.01 1013.54 1013.01 1012.45 1011.94 1011.50 1011.17 1010.96 1010.87 1010.88 1010.95 1011.03 1011.09 1011.09 1011.02 1010.88 1010.68 1010.46 1010.24 1010.05 1009.91 1009.83 1009.79 1009.77 1009.75 1009.69 1009.57 1009.39 1009.14 1008.84 1008.51 1008.20 1007.92 1007.70 1007.56 1007.48 1007.46 1007.47 1007.48 1007.47
1014.45 1014.30 1014.05 1013.68 1013.22 1012.69 1012.14 1011.61 1011.15 1010.80 1010.56 1010.46 1010.48 1010.58 1010.73 1010.88 1010.99 1011.02 1010.98 1010.85 1010.67 1010.45 1010.23 1010.04 1009.90 1009.81 1009.76 1009.74 1009.71 1009.65 1009.54 1009.37 1009.13 1008.84 1008.52 1008.21 1007.93 1007.70 1007.53 1007.42 1007.37 1007.34 1007.33 1007.31
1013.78 1013.52 1013.16 1012.73 1012.25 1011.73 1011.23 1010.78 1010.42 1010.18 1010.07 1010.08 1010.20 1010.39 1010.61 1010.81 1010.95 1011.01 1010.98 1010.86 1010.67 1010.45 1010.23 1010.03 1009.87 1009.77 1009.72 1009.69 1009.66 1009.60 1009.50 1009.35 1009.13 1008.86 1008.56 1008.26 1007.97 1007.73 1007.53 1007.38 1007.29 1007.22 1007.17 1007.13
1012.89 1012.55 1012.15 1011.72 1011.27 1010.83 1010.43 1010.11 1009.88 1009.77 1009.79 1009.91 1010.13 1010.38 1010.65 1010.87 1011.03 1011.09 1011.05 1010.92 1010.72 1010.49 1010.25 1010.03 1009.86 1009.74 1009.67 1009.63 1009.60 1009.55 1009.46 1009.32 1009.12 1008.88 1008.60 1008.30 1008.01 1007.74 1007.51 1007.33 1007.18 1007.06 1006.97 1006.90
1011.96 1011.60 1011.22 1010.84 1010.48 1010.16 1009.90 1009.72 1009.65 1009.67 1009.80 1010.02 1010.29 1010.58 1010.85 1011.07 1011.20 1011.24 1011.18 1011.02 1010.80 1010.55 1010.29 1010.05 1009.86 1009.72 1009.63 1009.57 1009.53 1009.48 1009.40 1009.27 1009.09 1008.86 1008.59 1008.30 1008.00 1007.71 1007.45 1007.21 1007.02 1006.86 1006.73 1006.63
1011.19 1010.85 1010.54 1010.25 1010.01 1009.83 1009.72 1009.69 1009.75 1009.89 1010.11 1010.37 1010.66 1010.94 1011.18 1011.36 1011.44 1011.43 1011.32 1011.13 1010.87 1010.59 1010.31 1010.06 1009.85 1009.69 1009.58 1009.51 1009.45 1009.39 1009.30 1009.18 1009.01 1008.78 1008.52 1008.23 1007.92 1007.61 1007.32 1007.05 1006.82 1006.62 1006.47 1006.35
1010.70 1010.42 1010.20 1010.02 1009.92 1009.88 1009.91 1010.01 1010.17 1010.38 1010.63 1010.90 1011.17 1011.39 1011.57 1011.66 1011.67 1011.58 1011.42 1011.18 1010.89 1010.59 1010.29 1010.02 1009.80 1009.62 1009.49 1009.40 1009.33 1009.25 1009.16 1009.03 1008.86 1008.65 1008.39 1008.10 1007.79 1007.47 1007.16 1006.88 1006.62 1006.41 1006.24 1006.12
1010.53 1010.33 1010.21 1010.15 1010.17 1010.25 1010.39 1010.57 1010.79 1011.03 1011.27 1011.50 1011.69 1011.83 1011.90 1011.90 1011.81 1011.65 1011.42 1011.13 1010.82 1010.50 1010.19 1009.92 1009.69 1009.50 1009.36 1009.25 1009.16 1009.07 1008.97 1008.84 1008.67 1008.46 1008.21 1007.93 1007.63 1007.32 1007.01 1006.73 1006.48 1006.26 1006.10 1005.99
1010.64 1010.53 1010.49 1010.54 1010.65 1010.82 1011.03 1011.25 1011.49 1011.70 1011.89 1012.04 1012.13 1012.16 1012.12 1012.01 1011.82 1011.58 1011.30 1010.98 1010.65 1010.32 1010.01 1009.74 1009.51 1009.33 1009.18 1009.06 1008.95 1008.85 1008.74 1008.61 1008.44 1008.24 1008.01 1007.75 1007.47 1007.18 1006.90 1006.64 1006.41 1006.23 1006.09 1006.01
1010.93 1010.89 1010.94 1011.06 1011.24 1011.46 1011.69 1011.91 1012.11 1012.27 1012.38 1012.42 1012.40 1012.31 1012.16 1011.95 1011.69 1011.39 1011.06 1010.73 1010.39 1010.07 1009.78 1009.52 1009.30 1009.12 1008.97 1008.84 1008.72 1008.61 1008.49 1008.35 1008.19 1008.01 1007.80 1007.57 1007.33 1007.09 1006.85 1006.63 1006.45 1006.30 1006.20 1006.14
1011.29 1011.32 1011.42 1011.59 1011.80 1012.02 1012.24 1012.42 1012.56 1012.64 1012.66 1012.60 1012.47 1012.28 1012.04 1011.75 1011.44 1011.10 1010.76 1010.42 1010.10 1009.81 1009.53 1009.30 1009.09 1008.91 1008.75 1008.61 1008.48 1008.35 1008.22 1008.08 1007.93 1007.77 1007.58 1007.40 1007.20 1007.01 1006.83 1006.67 1006.53 1006.43 1006.37 1006.35
1011.62 1011.70 1011.83 1012.02 1012.22 1012.42 1012.60 1012.72 1012.79 1012.79 1012.71 1012.57 1012.35 1012.09 1011.79 1011.46 1011.13 1010.79 1010.45 1010.14 1009.85 1009.58 1009.33 1009.11 1008.90 1008.72 1008.55 1008.39 1008.24 1008.10 1007.95 1007.80 1007.65 1007.50 1007.35 1007.20 1007.06 1006.92 1006.80 1006.69 1006.61 1006.56 1006.54 1006.55
1011.88 1011.98 1012.13 1012.30 1012.48 1012.64 1012.75 1012.81 1012.81 1012.73 1012.58 1012.37 1012.11 1011.81 1011.49 1011.16 1010.83 1010.51 1010.21 1009.92 1009.66 1009.42 1009.19 1008.97 1008.77 1008.57 1008.38 1008.19 1008.01 1007.83 1007.66 1007.50 1007.35 1007.21 1007.08 1006.96 1006.86 1006.77 1006.70 1006.65 1006.62 1006.61 1006.63 1006.66
1012.07 1012.17 1012.31 1012.45 1012.59 1012.69 1012.74 1012.73 1012.66 1012.52 1012.33 1012.08 1011.80 1011.50 1011.19 1010.88 1010.58 1010.30 1010.04 1009.79 1009.56 1009.33 1009.11 1008.89 1008.66 1008.43 1008.20 1007.97 1007.74 1007.52 1007.32 1007.13 1006.97 1006.84 1006.72 1006.64 1006.57 1006.53 1006.51 1006.50 1006.52 1006.54 1006.58 1006.63
1012.21 1012.30 1012.41 1012.51 1012.58 1012.62 1012.61 1012.54 1012.41 1012.24 1012.02 1011.76 1011.49 1011.20 1010.92 1010.65 1010.40 1010.16 1009.93 1009.72 1009.50 1009.28 1009.04 1008.79 1008.53 1008.25 1007.97 1007.68 1007.41 1007.14 1006.90 1006.69 1006.52 1006.38 1006.28 1006.22 1006.19 1006.19 1006.21 1006.24 1006.29 1006.34 1006.40 1006.46
1012.34 1012.40 1012.46 1012.51 1012.52 1012.49 1012.41 1012.29 1012.12 1011.92 1011.69 1011.44 1011.18 1010.93 1010.69 1010.46 1010.25 1010.04 1009.84 1009.64 1009.42 1009.18 1008.92 1008.63 1008.32 1007.99 1007.64 1007.30 1006.97 1006.66 1006.39 1006.16 1005.98 1005.85 1005.77 1005.73 1005.73 1005.77 1005.82 1005.89 1005.97 1006.06 1006.13 1006.20
1012.47 1012.49 1012.49 1012.47 1012.41 1012.32 1012.18 1012.01 1011.81 1011.58 1011.35 1011.11 1010.87 1010.65 1010.45 1010.25 1010.07 1009.88 1009.69 1009.49 1009.25 1008.98 1008.68 1008.34 1007.97 1007.58 1007.18 1006.79 1006.42 1006.09 1005.79 1005.56 1005.38 1005.27 1005.21 1005.21 1005.25 1005.32 1005.42 1005.53 1005.64 1005.75 1005.85 1005.93
1012.58 1012.55 1012.49 1012.39 1012.27 1012.11 1011.92 1011.70 1011.46 1011.22 1010.98 1010.75 1010.54 1010.34 1010.15 1009.98 1009.81 1009.62 1009.42 1009.19 1008.93 1008.62 1008.27 1007.88 1007.47 1007.03 1006.60 1006.17 1005.78 1005.44 1005.15 1004.93 1004.78 1004.70 1004.68 1004.72 1004.81 1004.93 1005.07 1005.22 1005.37 1005.50 1005.61 1005.70
1012.62 1012.53 1012.40 1012.24 1012.05 1011.83 1011.59 1011.33 1011.08 1010.82 1010.58 1010.35 1010.14 1009.95 1009.77 1009.60 1009.42 1009.23 1009.01 1008.75 1008.45 1008.10 1007.71 1007.29 1006.84 1006.38 1005.93 1005.50 1005.12 1004.79 1004.53 1004.35 1004.25 1004.21 1004.25 1004.35 1004.49 1004.65 1004.84 1005.02 1005.19 1005.35 1005.47 1005.57
1012.52 1012.37 1012.19 1011.97 1011.73 1011.46 1011.18 1010.90 1010.62 1010.36 1010.11 1009.89 1009.68 1009.49 1009.31 1009.13 1008.93 1008.72 1008.47 1008.18 1007.85 1007.47 1007.06 1006.61 1006.15 1005.69 1005.26 1004.85 1004.51 1004.22 1004.02 1003.89 1003.85 1003.88 1003.98 1004.13 1004.32 1004.53 1004.75 1004.96 1005.15 1005.31 1005.43 1005.52
Thickness
5778 5788 5790 5789 5791 5793 5785 5777 5767 5772 5776 5787 5797 5800 5804 5806 5806 5805 5805 5804 5803 5801 5800 5799 5798 5796 5793 5791 5790 5787 5783 5778 5775 5774 5771 5768 5765 5762 5760 5757 5754 5751 5748 5744
5770 5783 5786 5782 5787 5789 5788 5787 5781 5779 5778 5795 5799 5801 5801 5801 5801 5799 5799 5800 5800 5800 5798 5795 5794 5791 5789 5786 5784 5782 5778 5774 5771 5768 5765 5762 5760 5757 5754 5751 5748 5745 5741 5738
5748 5767 5770 5758 5777 5782 5781 5786 5783 5771 5779 5792 5791 5793 5794 5796 5797 5796 5797 5796 5795 5794 5793 5791 5789 5787 5784 5782 5780 5776 5772 5769 5766 5763 5759 5757 5755 5751 5747 5745 5742 5738 5735 5732
5738 5747 5733 5758 5787 5790 5783 5783 5787 5785 5786 5790 5788 5791 5793 5794 5793 5792 5793 5791 5789 5788 5786 5786 5785 5783 5781 5778 5774 5770 5766 5763 5761 5757 5753 5750 5747 5744 5741 5738 5735 5732 5729 5726
5725 5725 5735 5761 5778 5780 5774 5769 5784 5782 5782 5784 5786 5783 5780 5788 5791 5789 5789 5788 5786 5784 5782 5780 5778 5776 5773 5769 5765 5762 5759 5756 5754 5751 5746 5743 5740 5737 5734 5731 5729 5726 5723 5721
5724 5721 5718 5747 5778 5790 5778 5753 5777 5779 5777 5778 5778 5761 5764 5780 5783 5782 5783 5782 5780 5778 5775 5771 5769 5768 5763 5759 5757 5755 5753 5750 5747 5744 5741 5737 5733 5731 5728 5725 5722 5719 5716 5713
5720 5718 5729 5759 5777 5780 5746 5746 5772 5775 5774 5774 5770 5768 5771 5775 5774 5774 5774 5775 5773 5770 5766 5763 5762 5760 5755 5751 5749 5748 5746 5743 5740 5738 5734 5731 5727 5724 5721 5718 5714 5711 5708 5705
5714 5711 5722 5762 5766 5756 5754 5768 5771 5771 5771 5769 5768 5770 5768 5767 5766 5764 5763 5764 5764 5760 5756 5754 5753 5751 5746 5742 5742 5741 5738 5734 5731 5729 5727 5724 5720 5716 5713 5709 5705 5701 5698 5696
5720 5724 5745 5758 5761 5765 5767 5764 5765 5765 5765 5766 5763 5760 5759 5758 5756 5756 5756 5755 5754 5751 5747 5744 5743 5742 5737 5735 5734 5731 5728 5724 5721 5720 5718 5715 5711 5707 5704 5701 5697 5693 5690 5687
5721 5730 5742 5750 5757 5761 5764 5763 5764 5763 5761 5759 5755 5753 5751 5749 5747 5747 5746 5745 5743 5741 5737 5734 5734 5732 5730 5728 5725 5722 5718 5714 5712 5710 5707 5704 5702 5699 5695 5691 5688 5685 5682 5680
5713 5723 5733 5741 5747 5752 5756 5758 5757 5756 5754 5752 5749 5745 5743 5741 5739 5739 5738 5736 5733 5730 5727 5725 5724 5722 5721 5719 5716 5712 5708 5704 5702 5700 5697 5694 5691 5688 5686 5684 5682 5679 5676 5674
5708 5721 5723 5727 5739 5745 5746 5746 5747 5746 5743 5743 5742 5737 5735 5732 5731 5730 5728 5726 5723 5721 5718 5716 5715 5713 5711 5710 5707 5702 5697 5694 5691 5689 5687 5685 5682 5679 5678 5677 5676 5674 5672 5668
5721 5727 5728 5731 5735 5739 5739 5739 5740 5739 5736 5733 5731 5729 5726 5722 5721 5719 5717 5715 5712 5710 5708 5707 5705 5703 5702 5700 5697 5692 5688 5685 5682 5680 5678 5676 5674 5671 5667 5666 5666 5665 5663 5661
5722 5724 5720 5723 5725 5730 5731 5731 5731 5729 5728 5726 5721 5719 5716 5713 5710 5708 5706 5705 5703 5701 5698 5696 5694 5692 5692 5690 5687 5683 5680 5677 5675 5672 5670 5668 5666 5663 5661 5658 5655 5653 5653 5651
5713 5715 5714 5716 5717 5719 5722 5722 5718 5714 5713 5712 5711 5709 5706 5702 5699 5697 5697 5697 5694 5690 5688 5685 5683 5681 5681 5680 5677 5674 5671 5668 5666 5665 5663 5661 5658 5655 5653 5650 5647 5645 5643 5642
5703 5705 5706 5705 5705 5707 5708 5708 5705 5702 5701 5701 5700 5699 5696 5694 5691 5689 5688 5687 5683 5679 5677 5675 5673 5671 5671 5669 5667 5665 5663 5662 5660 5657 5655 5653 5650 5647 5644 5642 5639 5636 5634 5633
5692 5690 5692 5693 5695 5696 5696 5697 5696 5695 5693 5692 5691 5690 5687 5684 5681 5678 5677 5677 5675 5672 5670 5668 5666 5665 5663 5661 5658 5655 5653 5652 5652 5649 5646 5644 5642 5640 5637 5634 5631 5629 5627 5626
5691 5690 5692 5692 5690 5688 5688 5689 5688 5686 5685 5684 5682 5680 5677 5673 5669 5668 5668 5667 5665 5662 5661 5659 5658 5657 5655 5653 5649 5646 5644 5642 5641 5639 5637 5635 5634 5632 5630 5627 5624 5621 5619 5617
5683 5684 5685 5685 5685 5683 5681 5680 5679 5678 5677 5675 5672 5669 5667 5665 5662 5660 5659 5657 5654 5651 5651 5651 5649 5647 5645 5644 5642 5638 5635 5633 5631 5630 5628 5627 5625 5623 5621 5618 5616 5613 5611 5608
5674 5675 5676 5677 5677 5676 5673 5672 5671 5669 5668 5666 5663 5660 5657 5656 5655 5652 5650 5647 5646 5645 5644 5643 5640 5638 5636 5634 5633 5629 5627 5625 5623 5621 5619 5617 5616 5614 5612 5610 5608 5605 5602 5599
5664 5665 5666 5666 5666 5667 5666 5664 5662 5660 5658 5657 5654 5651 5649 5648 5646 5644 5640 5636 5637 5637 5636 5635 5632 5629 5627 5625 5624 5622 5619 5617 5614 5612 5611 5609 5607 5605 5603 5601 5598 5596 5593 5590
5655 5656 5657 5658 5657 5656 5657 5656 5654 5652 5650 5648 5646 5643 5640 5638 5636 5633 5631 5629 5629 5628 5626 5624 5623 5622 5620 5618 5615 5613 5611 5609 5607 5605 5603 5601 5599 5597 5594 5592 5589 5587 5584 5580
5647 5648 5649 5649 5648 5648 5648 5648 5647 5644 5641 5639 5637 5634 5632 5629 5627 5623 5620 5620 5620 5619 5617 5615 5614 5613 5611 5608 5606 5604 5603 5601 5599 5597 5595 5593 5591 5589 5586 5583 5580 5577 5574 5571
5641 5641 5642 5642 5641 5639 5637 5638 5638 5636 5634 5632 5629 5627 5624 5620 5617 5616 5615 5614 5613 5611 5608 5606 5605 5603 5601 5599 5597 5596 5594 5592 5590 5588 5587 5584 5582 5579 5576 5573 5571 5568 5565 5562
5633 5634 5634 5632 5631 5630 5629 5629 5628 5626 5625 5622 5621 5619 5617 5615 5611 5609 5607 5606 5605 5603 5600 5598 5597 5595 5593 5591 5590 5588 5586 5584 5582 5580 5578 5575 5573 5570 5567 5564 5562 5559 5556 5552
5626 5626 5626 5626 5625 5624 5623 5621 5619 5617 5615 5612 5611 5610 5608 5606 5604 5602 5600 5598 5597 5594 5592 5590 5588 5587 5585 5583 5582 5580 5578 5576 5575 5573 5570 5568 5565 5562 5559 5556 5554 5550 5547 5544
5619 5619 5619 5618 5618 5618 5617 5614 5612 5609 5607 5605 5603 5602 5601 5599 5597 5595 5593 5590 5589 5586 5584 5582 5580 5579 5577 5576 5574 5573 5571 5569 5567 5565 5562 5560 5557 5554 5551 5549 5545 5542 5539 5536